This demonstration page uses our WeatherBlox Daily Observations layout. Learn more.

Left ArrowRight Arrow

34.16533, -84.80231

Hourly Observations for March 12, 2021

Temp ( °F °C ) Dew Point ( °F °C ) Humidity (%) Winds ( mph kmh ) Pressure ( in mb ) Visibility ( mi km ) Precip ( " mm )
12:53 am 00:53 Clear 51 10.6 45 7.2 80 80 Calm 30.31 1027 10 16 0.00 0.00
1:53 am 01:53 Clear 51 10.6 45 7.2 80 80 Calm 30.31 1027 9 14 0.00 0.00
2:53 am 02:53 Clear 49 9.4 44 6.7 83 83 Calm 30.30 1026 9 14 0.00 0.00
3:53 am 03:53 Clear 48 8.9 44 6.7 86 86 Calm 30.30 1026 10 16 0.00 0.00
4:53 am 04:53 Clear 48 8.9 44 6.7 86 86 Calm 30.31 1026 7 11 0.00 0.00
5:53 am 05:53 Clear 48 8.9 44 6.7 86 86 Calm 30.33 1027 7 11 0.00 0.00
6:53 am 06:53 Clear 47 8.3 43 6.1 86 86 Calm 30.34 1028 8 13 0.00 0.00
7:53 am 07:53 Sunny 50 10 46 7.8 86 86 Calm 30.37 1029 9 14 0.00 0.00
8:53 am 08:53 Sunny 57 13.9 48 8.9 72 72 NNE 3 6 30.39 1029 10 16 0.00 0.00
9:53 am 09:53 Cloudy 65 18.3 51 10.6 61 61 Calm 30.39 1029 10 16 0.00 0.00
10:53 am 10:53 Sunny 69 20.6 54 12.2 59 59 S 6 9 30.37 1028 10 16 0.00 0.00
11:53 am 11:53 Mostly Cloudy 74 23.3 54 12.2 50 50 Calm 30.36 1028 10 16 0.00 0.00
12:53 pm 12:53 Sunny 75 23.9 53 11.7 46 46 VRB 5 7 30.34 1027 10 16 0.00 0.00
1:53 pm 13:53 Sunny 76 24.4 51 10.6 42 42 VRB 5 7 30.29 1026 10 16 0.00 0.00
2:53 pm 14:53 Sunny 77 25 52 11.1 42 42 WSW 5 7 30.27 1025 10 16 0.00 0.00
3:53 pm 15:53 Sunny 77 25 52 11.1 42 42 Calm 30.26 1025 10 16 0.00 0.00
4:53 pm 16:53 Sunny 77 25 51 10.6 40 40 Calm 30.25 1024 10 16 0.00 0.00
5:53 pm 17:53 Sunny 75 23.9 52 11.1 45 45 Calm 30.24 1024 10 16 0.00 0.00
6:53 pm 18:53 Clear 69 20.6 53 11.7 57 57 Calm 30.25 1024 10 16 0.00 0.00
7:53 pm 19:53 Clear 63 17.2 53 11.7 70 70 Calm 30.26 1025 10 16 0.00 0.00
8:53 pm 20:53 Clear 62 16.7 52 11.1 70 70 Calm 30.27 1025 10 16 0.00 0.00
9:53 pm 21:53 Clear 57 13.9 51 10.6 81 81 Calm 30.28 1025 10 16 0.00 0.00
10:53 pm 22:53 Clear 58 14.4 52 11.1 81 81 Calm 30.28 1026 10 16 0.00 0.00
11:53 pm 23:53 Clear 57 13.9 52 11.1 83 83 Calm 30.27 1025 10 16 0.00 0.00

Powered by AerisWeather